Location: Carrières
(48.9495°N, 2.0407°E)
Time: 10:11:43
(UTC+00:00)

Transit 2A - Pass Details

Date: 22 April 2024
Orbit: 594 x 958 km, 66.7° (Epoch: 24 May)

Event Time Altitude Azimuth Distance (km) Brightness Sun altitude
Rises 14:01:07 0° 324° (NW) 3,228 9.2 44.6°
Reaches altitude 10° 14:03:25 10° 325° (NW) 2,353 8.6 44.4°
Maximum altitude 14:08:53 84° 54° (NE) 857 6.9 43.7°
Drops below altitude 10° 14:14:53 10° 143° (SE) 2,574 8.9 42.9°
Sets 14:17:29 0° 144° (SE) 3,551 9.5 42.6°
